Location: Unspecified
(0.0000°N, 0.0000°E)
Time: 16:29:03
(UTC+00:00)

ISS - Visible Passes

Search period start: 21 May 2018 00:00
Search period end: 31 May 2018 00:00
Orbit: 402 x 407 km, 51.6° (Epoch: 22 May)

Date Brightness Start Highest point End Pass type
(mag) Time Alt. Az. Time Alt. Az. Time Alt. Az.
21 May -0.3 05:20:43 10° NNE 05:22:14 13° NE 05:23:46 10° E visible
21 May -1.5 18:29:35 10° WSW 18:32:31 30° NW 18:35:25 10° N visible
23 May -2.7 05:11:06 10° NNW 05:14:15 48° NE 05:17:25 10° SE visible
24 May -0.8 04:19:50 10° N 04:22:06 18° NE 04:24:22 10° E visible
25 May -3.2 05:03:12 10° WNW 05:06:11 34° SW 05:09:12 10° SSE visible
26 May -1.2 04:16:42 14° SE 04:16:42 14° SE 04:17:16 10° SE visible
